Back to catalog

DELTA 2 R/B(1)

AliveLEO
NORAD 24809·ROCKET BODY·🇺🇸 United States

Launched May 20, 1997 from Cape Canaveral Space Force Station

Loading…

Next Passes (next 24 hours)

TLE

FreshSource: Space-Track

Epoch: Sep 14, 2026, 22:34 UTC

1 24809U 97025B   26257.94073175  .00000351  00000-0  14336-3 0  9993
2 24809  26.2916 194.9524 0662219  57.0628 309.1823 13.31075269425979

Track DELTA 2 R/B(1) in real time with AllMySat

Download on the App Store